Regional Weather Roundup
Issued by NWS Sterling, VA

Current Version | Previous Version | Text Only | Print | Product List | Glossary On
Versions: 1 2 3 4 5 6 7 8 9 10 11 12 13 14 15 16 17 18 19 20 21 22 23 24 25 26 27 28
000
ASUS41 KLWX 260911
RWRLWX

REGIONAL WEATHER ROUNDUP
NATIONAL WEATHER SERVICE BALTIMORE MD/WASHINGTON DC
500 AM EDT WED JUL 26 2017

Note: "FAIR" indicates few or no clouds below 12,000 feet
with no significant weather and/or obstructions to visibility.
 TC=TEMPERATURE CELSIUS

 * =Non NWS site. Station does not report precipitation (e.g. rain,
    snow, etc.), thunder, or fog.

DCZ001-MDZ009-015-VAZ040>042-051-053>054-261000-
WASHINGTON METRO

CITY           SKY/WX    TMP DP  RH WIND       PRES   REMARKS
WASHINGTON NAT PTCLDY    69  63  81 N9        30.19S
DULLES         PTCLDY    63  60  90 NW3       30.20S
ANDREWS AFB    CLEAR     64  60  88 N6        30.18R
FT BELVOIR     PTCLDY    63  62  94 CALM      30.18R
QUANTICO       CLOUDY    67  64  90 NW8       30.19R
COLLEGE PARK*  CLEAR     63  61  93 CALM      30.18S
LEESBURG*      CLEAR     61  61 100 N3        30.21S
MANASSAS*      PTCLDY    60  59  96 CALM      30.20R
GAITHERSBURG*  CLEAR     60  59  96 CALM      30.21R

$$

MDZ006>007-011-014-261000-
BALTIMORE METRO

CITY           SKY/WX    TMP DP  RH WIND       PRES   REMARKS
BWI AIRPORT    PTCLDY    62  62 100 NW5       30.18S
MD SCIENCE CTR   N/A     70  66  87 MISG      30.19S
MARTIN STATE   DRIZZLE   70  68  94 CALM      30.20S
ANNAPOLIS      MOCLDY    72  71  97 N6        30.17R
FORT MEADE*    PTCLDY    59  59 100 CALM      30.21S

$$

MDZ012-015-019>023-261000-
MARYLAND EASTERN SHORE

CITY           SKY/WX    TMP DP  RH WIND       PRES   REMARKS
OCEAN CITY     MOCLDY    70  68  93 CALM      30.17S
SALISBURY      CLEAR     66  66 100 CALM      30.17S
BAY BRIDGE AP* MOCLDY    70  66  88 E7        30.18R
CAMBRIDGE*     PTCLDY    66  64  94 CALM      30.18R
EASTON*        PTCLDY    68  65  91 CALM      30.21S

$$

MDZ017>025-261000-
SOUTHERN MARYLAND

CITY           SKY/WX    TMP DP  RH WIND       PRES   REMARKS
PATUXENT RIVER MOCLDY    72  69  90 E7        30.16S
ST INIGOES     MOCLDY    70  68  93 CALM      30.16R
LEONARDTOWN*   CLOUDY    68  64  88 CALM      30.18S

$$

MDZ003>005-261000-
NORTH CENTRAL MARYLAND

CITY           SKY/WX    TMP DP  RH WIND       PRES   REMARKS
FREDERICK*     CLEAR     61  61 100 CALM      30.23S FOG
HAGERSTOWN APT CLEAR     62  60  93 CALM      30.20S
WESTMINSTER*   PTCLDY    63  61  94 CALM      30.21S

$$

MDZ501>502-261000-
WESTERN MARYLAND

CITY           SKY/WX    TMP DP  RH WIND       PRES   REMARKS
OAKLAND*       CLEAR     54  52  94 SE10      30.22R
CUMBERLAND*    CLOUDY    59  59 100 CALM      30.26R VSB 1/4

$$

VAZ025>031-261000-
SHENANDOAH VALLEY

CITY           SKY/WX    TMP DP  RH WIND       PRES   REMARKS
WINCHESTER*    CLEAR     55  54  94 CALM      30.21S
FRONT ROYAL*   CLEAR     57  57 100 CALM      30.20S
LURAY*         PTCLDY    59  59 100 CALM      30.21S
NEW MARKET*    CLOUDY    61  59  93 CALM      30.21S
STAUNTON*      PTCLDY    57  56  95 CALM      30.24S
WAYNESBORO*    PTCLDY    58  58 100 SW3       30.23F

$$

WVZ021-048>050-054>055-261000-
EASTERN WEST VIRGINIA PANHANDLE

CITY           SKY/WX    TMP DP  RH WIND       PRES   REMARKS
MARTINSBURG    CLEAR     57  55  93 CALM      30.20R FOG
PETERSBURG*    MOCLDY    57  56  97 CALM      30.22S

$$

VAZ036>039-050-261000-
CENTRAL FOOTHILLS

CITY           SKY/WX    TMP DP  RH WIND       PRES   REMARKS
CHARLOTTESVILL MOCLDY    62  60  93 CALM      30.20S
CULPEPER*      PTCLDY    62  61  97 CALM      30.21R
ORANGE*        CLOUDY    63  59  88 CALM      30.20S
GORDONSVILLE*  MOCLDY    61  60  97 CALM      30.19S
WARRENTON*     CLOUDY    62  59  89 CALM      30.19S

$$

VAZ055>057-261000-
NORTH AND CENTRAL PIEDMONT

CITY           SKY/WX    TMP DP  RH WIND       PRES   REMARKS
FREDERICKSBRG* PTCLDY    67  63  84 CALM      30.18R
STAFFORD*      MOCLDY    62  62 100 CALM      30.23R

$$

NCZ024-NYZ072-PAZ021-071-VAZ022-071-261000-
OTHER REGIONAL OBSERVATIONS

CITY           SKY/WX    TMP DP  RH WIND       PRES   REMARKS
NEW YORK CITY  MOCLDY    65  58  78 N3        30.24S
PHILADELPHIA   CLOUDY    68  62  81 NE5       30.21R
PITTSBURGH     CLEAR     59  57  93 CALM      30.19R
ROANOKE        CLOUDY    70  60  70 S3        30.23S
RICHMOND       MOCLDY    68  64  87 N6        30.17R
RALEIGH        PTCLDY    74  66  76 E8        30.16R

$$

ANZ530>537-261000-
MARINE OBSERVATIONS

STATION/POSITION TIME  TEMP    WIND        PRES
                       AIR SEA DIR/SP/G
                 (UTC) (F)     (DEG/KT/KT) (MB)
THOMAS PT LIGHT  0900   72 81  120/  9/ 10   N/A
BALT KEY BRIDGE  0848   69      30/  8/  9 1021.6F
COVE POINT       0848   72     140/  9/ 12 1022.2R
LEWISETTA        0848   76 83  170/  5/  6 1021.2R
SOLOMONS ISLAND  0848   74 83   80/  9/ 11   N/A
PINEY POINT      0848           60/  4/  5   N/A

$$





USA.gov is the U.S. government's official web portal to all federal, state and local government web resources and services.